EW3841 Vancouver CA current weather conditions

sailwx.info

Wind from 055

Air temperature 12.8° C
Dewpoint 10.7° C

Last reported at 2020-Jul-08 05:01 UTC.
Time now 2020-Jul-08 05:22 UTC

Location: N 49°19' W 122°48'.
View on Google Maps.

See reports from other nearby stations

  
Tides and Currents Weather Stations Pressure Air Temp Water Temp Dewpoint Dewpoint Depression Visibility Wind Speed Wind Dir Waves Ship Positions
date/time (UTC)wind fromknots sea level pressurealtimeterstation pressurevisibilityair tempwater tempwave heightnotes
2020-Jul-08 05:01 055 12.8
2020-Jul-08 04:46 055 12.8
2020-Jul-08 04:31 055 12.8
2020-Jul-08 04:17 055 13.3
2020-Jul-08 04:01 055 13.3
2020-Jul-08 03:46 055 13.3
2020-Jul-08 03:31 055 13.3
2020-Jul-08 03:17 055 13.9
2020-Jul-08 03:01 055 13.9
2020-Jul-08 02:47 055 13.9
2020-Jul-08 02:31 055 13.9
2020-Jul-08 02:17 055 13.9
2020-Jul-08 02:01 054 13.9
2020-Jul-08 01:46 054 13.3
2020-Jul-08 01:32 054 13.3
2020-Jul-08 01:15 053 13.3
2020-Jul-08 01:03 053 13.3
2020-Jul-08 00:46 053 13.3
2020-Jul-08 00:32 053 13.3
2020-Jul-08 00:16 053 13.3
2020-Jul-08 00:01 053 13.3
2020-Jul-07 23:46 053 13.9
2020-Jul-07 23:30 053 13.9
2020-Jul-07 23:16 053 13.9
2020-Jul-07 23:00 194 13.9
2020-Jul-07 22:46 119 13.9
2020-Jul-07 22:30 119 13.9
2020-Jul-07 22:15 118 13.9
2020-Jul-07 22:01 118 13.3
2020-Jul-07 21:45 209 13.3
2020-Jul-07 21:31 211 13.3
2020-Jul-07 21:16 205 13.3
2020-Jul-07 21:01 205 12.8
2020-Jul-07 20:46 205 12.8
2020-Jul-07 20:31 205 12.8
2020-Jul-07 17:00 194 10.6
2020-Jul-07 16:45 194 10.6
2020-Jul-07 16:30 194 10.6
2020-Jul-07 16:16 194 10.0
2020-Jul-07 16:01 194 10.0
2020-Jul-07 13:15 194 9.4
2020-Jul-07 13:01 194 9.4
2020-Jul-07 12:46 194 10.0
2020-Jul-07 12:30 194 10.0
2020-Jul-07 12:16 194 10.0
2020-Jul-07 12:00 194 10.0
2020-Jul-07 11:46 194 10.0
2020-Jul-07 11:30 194 10.6
2020-Jul-07 11:15 194 10.6
2020-Jul-07 11:00 194 11.1
2020-Jul-07 10:45 194 11.7
2020-Jul-07 10:30 200 11.7
2020-Jul-07 10:15 200 11.7
2020-Jul-07 10:00 200 12.2
2020-Jul-07 09:45 202 12.2
2020-Jul-07 09:30 202 12.2
2020-Jul-07 09:15 202 12.2
2020-Jul-07 09:00 202 12.2
2020-Jul-07 08:45 202 12.2
2020-Jul-07 08:30 202 12.8
2020-Jul-07 08:15 202 12.8
2020-Jul-07 08:00 202 12.8
2020-Jul-07 07:45 202 12.8
2020-Jul-07 07:30 202 12.8
2020-Jul-07 07:17 202 12.8
2020-Jul-07 07:02 177 12.8
2020-Jul-07 06:46 177 12.8
2020-Jul-07 06:31 177 12.8
2020-Jul-07 06:17 177 12.8
2020-Jul-07 06:01 177 12.8
2020-Jul-07 05:48 177 12.8
2020-Jul-07 05:31 177 12.8
2020-Jul-07 05:16 177 13.3
2020-Jul-07 05:02 177 13.3
2020-Jul-07 04:46 177 13.9
2020-Jul-07 04:31 177 14.4
2020-Jul-07 04:16 177 15.0
2020-Jul-07 04:02 177 15.0
2020-Jul-07 03:45 177 15.6
2020-Jul-07 03:31 177 16.1
2020-Jul-07 03:16 175 16.1
2020-Jul-07 03:01 202 16.7
2020-Jul-07 02:46 109 16.7
2020-Jul-07 02:31 211 0 gusting 3 16.7
2020-Jul-07 02:16 221 16.7
2020-Jul-07 02:01 235 17.2
2020-Jul-07 01:46 139 17.2
2020-Jul-07 01:30 218 0 gusting 1 17.8
2020-Jul-07 01:15 082 18.3
2020-Jul-07 01:01 242 0 gusting 2 18.9
2020-Jul-07 00:45 098 18.9
2020-Jul-07 00:32 069 19.4
2020-Jul-07 00:16 221 18.9
2020-Jul-07 00:00 182 0 gusting 1 17.8
2020-Jul-06 23:46 084 17.8
2020-Jul-06 23:30 038 17.8
2020-Jul-06 23:15 134 17.8
2020-Jul-06 23:00 113 17.8
2020-Jul-06 22:45 151 18.3
2020-Jul-06 22:30 284 18.9
2020-Jul-06 22:15 204 0 gusting 2 19.4
2020-Jul-06 22:00 188 20.0
2020-Jul-06 21:45 260 0 gusting 2 19.4
2020-Jul-06 21:31 133 0 gusting 2 19.4
2020-Jul-06 21:15 152 0 gusting 2 18.9
2020-Jul-06 21:00 169 0 gusting 2 18.9
2020-Jul-06 20:45 223 17.8
2020-Jul-06 20:30 083 0 gusting 2 17.2
2020-Jul-06 20:15 078 0 gusting 5 16.1
2020-Jul-06 20:02 193 16.1
2020-Jul-06 19:47 187 16.1
2020-Jul-06 19:32 222 0 gusting 4 16.1
2020-Jul-06 19:16 202 16.1
2020-Jul-06 19:01 147 16.1
2020-Jul-06 18:46 192 0 gusting 2 15.6
2020-Jul-06 18:31 091 0 gusting 1 15.6
2020-Jul-06 18:15 180 0 gusting 2 15.6
2020-Jul-06 18:02 215 15.0
2020-Jul-06 17:46 119 14.4
2020-Jul-06 17:31 192 14.4
2020-Jul-06 17:16 194 0 gusting 1 13.9
2020-Jul-06 17:02 156 13.3
2020-Jul-06 16:45 177 13.3
2020-Jul-06 16:30 139 0 gusting 1 13.3
2020-Jul-06 16:15 132 0 gusting 1 12.8
2020-Jul-06 16:00 160 12.8
2020-Jul-06 15:45 204 12.2
2020-Jul-06 15:31 204 12.2
2020-Jul-06 15:15 204 11.7
2020-Jul-06 15:00 207 11.7
2020-Jul-06 14:45 207 11.1
2020-Jul-06 14:30 207 11.1
2020-Jul-06 14:15 207 10.6
2020-Jul-06 14:00 207 10.6
2020-Jul-06 13:45 207 10.6
2020-Jul-06 13:30 207 10.0
2020-Jul-06 13:15 207 10.0
2020-Jul-06 13:00 207 10.0
2020-Jul-06 12:45 207 10.0
2020-Jul-06 12:30 207 10.0
2020-Jul-06 12:15 207 10.0
2020-Jul-06 12:00 207 10.0
2020-Jul-06 11:45 207 10.0
2020-Jul-06 11:30 207 10.0
2020-Jul-06 11:17 207 10.0
2020-Jul-06 11:02 207 10.0
2020-Jul-06 10:46 207 10.0
2020-Jul-06 10:16 207 10.0
2020-Jul-06 10:01 207 10.0
2020-Jul-06 09:46 207 10.0
2020-Jul-06 09:32 207 10.6
2020-Jul-06 09:16 207 10.6
2020-Jul-06 09:00 207 10.6
2020-Jul-06 08:47 207 10.6
2020-Jul-06 08:31 207 10.6
2020-Jul-06 08:16 207 10.6
2020-Jul-06 08:01 207 10.6
2020-Jul-06 07:45 207 11.1
2020-Jul-06 07:31 207 11.1
2020-Jul-06 07:16 207 11.1
2020-Jul-06 07:01 207 11.7
2020-Jul-06 06:46 207 11.7
2020-Jul-06 06:31 207 11.7
2020-Jul-06 06:15 207 12.2
2020-Jul-06 06:00 207 12.2
2020-Jul-06 05:46 207 12.8
2020-Jul-06 05:30 207 12.8
2020-Jul-06 05:15 207 13.3
2020-Jul-06 05:01 207 13.3